Location: Nitra
(0.0000°N, 18.0833°E)
Time: 17:29:34
(UTC+02:00)

A-11 Canister half - Pass Details

Date: 08 April 2023
Orbit: 1513 x 1686 km, 47.2° (Epoch: 02 June)

Event Time Altitude Azimuth Distance (km) Brightness Sun altitude
Exits shadow 04:57:39 32° 214° (SW) 2,567 9.8 -27.8°
Drops below altitude 10° 05:04:46 10° 169° (SSE) 3,861 11.1 -26.0°
Sets 05:08:20 0° 159° (SSE) 4,822 11.8 -25.1°
